When you browse on this site, cookies collect data to enhance your experience and personalize the content and advertising you see.
Visit our Privacy Policy to learn more. By continuing to use the site, you agree to this use of cookies and data.
  • în România
  • Lista ţărilor
  • Pe 7 zile
  • Temperatura apei
  • Hartă satelitară
  • Meteo pe hartă
  • Widget-uri
  • user-avatar
    Intrare

    Meteo pe oră la Dębno

    Astăzi, 20 Februarie, Miercuri

    Timp Temperatura Precipitaţii Vânt Presiune Umiditate
    00:00 +3°C° 0 mm 5 m/s 758 mmHg 86%
    01:00 +3°C° 0 mm 4 m/s 758 mmHg 90%
    02:00 +3°C° 0 mm 4 m/s 758 mmHg 90%
    03:00 +3°C° 0 mm 4 m/s 758 mmHg 90%
    04:00 +2°C° 0 mm 5 m/s 758 mmHg 90%
    05:00 +2°C° 0 mm 5 m/s 759 mmHg 89%
    06:00 +2°C° 0 mm 5 m/s 759 mmHg 88%
    07:00 +3°C° 0 mm 4 m/s 759 mmHg 87%
    08:00 +3°C° 0 mm 5 m/s 760 mmHg 84%
    09:00 +5°C° 0 mm 5 m/s 760 mmHg 81%
    10:00 +5°C° 0 mm 5 m/s 761 mmHg 78%
    11:00 +6°C° 0 mm 5 m/s 761 mmHg 75%
    12:00 +6°C° 0 mm 5 m/s 761 mmHg 72%
    13:00 +7°C° 0 mm 5 m/s 761 mmHg 69%
    14:00 +7°C° 0 mm 4 m/s 761 mmHg 70%
    15:00 +7°C° 0 mm 4 m/s 762 mmHg 71%
    16:00 +8°C° 0 mm 3 m/s 762 mmHg 71%
    17:00 +8°C° 0 mm 3 m/s 762 mmHg 74%
    18:00 +7°C° 0 mm 3 m/s 762 mmHg 77%
    19:00 +7°C° 0 mm 2 m/s 763 mmHg 80%
    20:00 +7°C° 0 mm 2 m/s 763 mmHg 82%
    21:00 +5°C° 0 mm 3 m/s 763 mmHg 83%
    22:00 +5°C° 0 mm 3 m/s 763 mmHg 85%
    23:00 +5°C° 0 mm 3 m/s 763 mmHg 85%

    Mâine, 21 Februarie, Joi

    Timp Temperatura Precipitaţii Vânt Presiune Umiditate
    00:00 +5°C° 0 mm 3 m/s 763 mmHg 85%
    01:00 +4°C° 0 mm 3 m/s 763 mmHg 85%
    02:00 +5°C° 0 mm 3 m/s 763 mmHg 84%
    03:00 +5°C° 0 mm 3 m/s 763 mmHg 83%
    04:00 +5°C° 0 mm 4 m/s 763 mmHg 82%
    05:00 +5°C° 0.1 mm 4 m/s 763 mmHg 82%
    06:00 +5°C° 0.1 mm 4 m/s 762 mmHg 83%
    07:00 +5°C° 0.1 mm 4 m/s 762 mmHg 84%
    08:00 +5°C° 0.5 mm 5 m/s 762 mmHg 84%
    09:00 +5°C° 0.5 mm 5 m/s 762 mmHg 84%
    10:00 +5°C° 0.5 mm 5 m/s 762 mmHg 84%
    11:00 +4°C° 0.8 mm 6 m/s 762 mmHg 84%
    12:00 +5°C° 0.8 mm 6 m/s 762 mmHg 84%
    13:00 +5°C° 0.8 mm 6 m/s 762 mmHg 84%
    14:00 +5°C° 0.6 mm 6 m/s 762 mmHg 85%
    15:00 +7°C° 0.6 mm 6 m/s 761 mmHg 85%
    16:00 +7°C° 0.6 mm 6 m/s 761 mmHg 85%
    17:00 +7°C° 0.6 mm 6 m/s 761 mmHg 86%
    18:00 +7°C° 0.6 mm 6 m/s 762 mmHg 87%
    19:00 +7°C° 0.6 mm 5 m/s 762 mmHg 89%
    20:00 +7°C° 0.1 mm 5 m/s 762 mmHg 89%
    21:00 +7°C° 0.1 mm 5 m/s 762 mmHg 89%
    22:00 +7°C° 0.1 mm 5 m/s 762 mmHg 89%
    23:00 +7°C° 0.1 mm 5 m/s 763 mmHg 89%

    Poimâine, 22 Februarie, Vineri

    Timp Temperatura Precipitaţii Vânt Presiune Umiditate
    00:00 +7°C° 0.1 mm 5 m/s 763 mmHg 89%
    01:00 +7°C° 0.1 mm 5 m/s 763 mmHg 88%
    02:00 +6°C° 0.1 mm 5 m/s 764 mmHg 88%
    03:00 +6°C° 0.1 mm 5 m/s 764 mmHg 88%
    04:00 +6°C° 0.1 mm 5 m/s 765 mmHg 88%
    05:00 +5°C° 0 mm 5 m/s 766 mmHg 85%
    06:00 +3°C° 0 mm 5 m/s 767 mmHg 83%
    07:00 +2°C° 0 mm 5 m/s 768 mmHg 81%
    08:00 +1°C° 0 mm 5 m/s 769 mmHg 77%
    09:00 +1°C° 0 mm 5 m/s 770 mmHg 73%
    10:00 +1°C° 0 mm 4 m/s 772 mmHg 69%
    11:00 +1°C° 0 mm 4 m/s 772 mmHg 64%
    12:00 +3°C° 0 mm 4 m/s 773 mmHg 58%
    13:00 +3°C° 0 mm 4 m/s 774 mmHg 52%
    14:00 +3°C° 0 mm 4 m/s 774 mmHg 52%
    15:00 +3°C° 0 mm 3 m/s 774 mmHg 52%
    16:00 +3°C° 0 mm 3 m/s 775 mmHg 52%
    17:00 +2°C° 0 mm 3 m/s 775 mmHg 57%
    18:00 +2°C° 0 mm 2 m/s 776 mmHg 62%
    19:00 +1°C° 0 mm 2 m/s 776 mmHg 67%
    20:00 -1°C° 0 mm 2 m/s 776 mmHg 67%
    21:00 -1°C° 0 mm 2 m/s 777 mmHg 68%
    22:00 -2°C° 0 mm 2 m/s 777 mmHg 69%
    23:00 -2°C° 0 mm 2 m/s 777 mmHg 66%

    23 Februarie, Sâmbătă

    Timp Temperatura Precipitaţii Vânt Presiune Umiditate
    00:00 -2°C° 0 mm 2 m/s 778 mmHg 63%
    01:00 -3°C° 0 mm 2 m/s 778 mmHg 60%
    02:00 -3°C° 0 mm 2 m/s 778 mmHg 59%
    03:00 -3°C° 0 mm 2 m/s 777 mmHg 57%
    04:00 -3°C° 0 mm 2 m/s 777 mmHg 55%
    05:00 -3°C° 0 mm 2 m/s 778 mmHg 54%
    06:00 -3°C° 0 mm 2 m/s 778 mmHg 53%
    07:00 -3°C° 0 mm 2 m/s 778 mmHg 52%
    08:00 -3°C° 0 mm 2 m/s 778 mmHg 47%
    09:00 -2°C° 0 mm 2 m/s 778 mmHg 41%
    10:00 -1°C° 0 mm 3 m/s 778 mmHg 35%
    11:00 +1°C° 0 mm 2 m/s 778 mmHg 32%
    12:00 +2°C° 0 mm 2 m/s 778 mmHg 29%
    13:00 +3°C° 0 mm 2 m/s 778 mmHg 26%
    14:00 +3°C° 0 mm 2 m/s 777 mmHg 28%
    15:00 +3°C° 0 mm 2 m/s 777 mmHg 29%
    16:00 +4°C° 0 mm 1 m/s 777 mmHg 30%
    17:00 +3°C° 0 mm 1 m/s 777 mmHg 33%
    18:00 +2°C° 0 mm 1 m/s 777 mmHg 36%
    19:00 +1°C° 0 mm 1 m/s 777 mmHg 39%
    20:00 +1°C° 0 mm 1 m/s 777 mmHg 39%
    21:00 +1°C° 0 mm 1 m/s 776 mmHg 40%
    22:00 0°C° 0 mm 1 m/s 776 mmHg 40%
    23:00 0°C° 0 mm 1 m/s 776 mmHg 40%

    24 Februarie, Duminică

    Timp Temperatura Precipitaţii Vânt Presiune Umiditate
    00:00 0°C° 0 mm 1 m/s 776 mmHg 40%
    01:00 0°C° 0 mm 1 m/s 776 mmHg 40%
    02:00 0°C° 0 mm 1 m/s 776 mmHg 40%
    03:00 0°C° 0 mm 1 m/s 776 mmHg 40%
    04:00 -1°C° 0 mm 0 m/s 775 mmHg 39%
    05:00 -1°C° 0 mm 0 m/s 775 mmHg 39%
    06:00 -1°C° 0 mm 0 m/s 775 mmHg 38%
    07:00 -1°C° 0 mm 0 m/s 775 mmHg 38%
    08:00 0°C° 0 mm 0 m/s 775 mmHg 35%
    09:00 +3°C° 0 mm 1 m/s 775 mmHg 32%
    10:00 +4°C° 0 mm 1 m/s 775 mmHg 28%
    11:00 +5°C° 0 mm 1 m/s 775 mmHg 28%
    12:00 +6°C° 0 mm 1 m/s 775 mmHg 28%
    13:00 +6°C° 0 mm 0 m/s 775 mmHg 27%
    14:00 +7°C° 0 mm 1 m/s 774 mmHg 32%
    15:00 +7°C° 0 mm 1 m/s 774 mmHg 37%
    16:00 +7°C° 0 mm 1 m/s 774 mmHg 42%
    17:00 +6°C° 0 mm 1 m/s 774 mmHg 44%
    18:00 +3°C° 0 mm 0 m/s 774 mmHg 46%
    19:00 +2°C° 0 mm 0 m/s 774 mmHg 48%
    20:00 +2°C° 0 mm 0 m/s 774 mmHg 50%
    21:00 +2°C° 0 mm 0 m/s 774 mmHg 51%
    22:00 +1°C° 0 mm 0 m/s 775 mmHg 53%
    23:00 +2°C° 0 mm 1 m/s 775 mmHg 54%

    25 Februarie, Luni

    Timp Temperatura Precipitaţii Vânt Presiune Umiditate
    00:00 +2°C° 0 mm 1 m/s 775 mmHg 55%
    01:00 +2°C° 0 mm 1 m/s 775 mmHg 56%
    02:00 +2°C° 0 mm 1 m/s 774 mmHg 57%
    03:00 +2°C° 0 mm 1 m/s 774 mmHg 59%
    04:00 +2°C° 0 mm 1 m/s 774 mmHg 61%
    05:00 +1°C° 0 mm 2 m/s 774 mmHg 63%
    06:00 -1°C° 0 mm 2 m/s 774 mmHg 66%
    07:00 -1°C° 0 mm 2 m/s 774 mmHg 68%
    08:00 +2°C° 0 mm 2 m/s 775 mmHg 64%
    09:00 +3°C° 0 mm 2 m/s 775 mmHg 60%
    10:00 +5°C° 0 mm 2 m/s 775 mmHg 56%
    11:00 +6°C° 0 mm 2 m/s 775 mmHg 58%
    12:00 +7°C° 0 mm 3 m/s 775 mmHg 60%
    13:00 +8°C° 0 mm 3 m/s 775 mmHg 61%
    14:00 +8°C° 0 mm 3 m/s 774 mmHg 64%
    15:00 +9°C° 0 mm 2 m/s 774 mmHg 66%
    16:00 +9°C° 0 mm 2 m/s 774 mmHg 69%
    17:00 +7°C° 0 mm 2 m/s 774 mmHg 75%
    18:00 +6°C° 0 mm 2 m/s 775 mmHg 81%
    19:00 +5°C° 0 mm 2 m/s 775 mmHg 87%
    20:00 +5°C° 0 mm 1 m/s 775 mmHg 87%
    21:00 +5°C° 0 mm 1 m/s 775 mmHg 88%
    22:00 +4°C° 0 mm 1 m/s 775 mmHg 88%
    23:00 +4°C° 0 mm 1 m/s 775 mmHg 88%
    Arată mai mult